Skip Page Navigation
NASA JPL Caltech
NASA Logo - Jet Propulsion Laboratory + View the NASA Portal
+ Center for Near-Earth Object Studies
JPL Home Earth Solar System Stars & Galaxies Technology
JPL Solar System Dynamics
BODIES ORBITS EPHEMERIDES TOOLS PHYSICAL DATA DISCOVERY FAQ SITE MAP
JPL Small-Body Database Browser
Search: [ help ]  
146215 (2000 VV36)
Classification: Main-belt Asteroid          SPK-ID: 2146215
Ephemeris | Orbit Diagram | Orbital Elements | Mission Design | Physical Parameters | Discovery Circumstances | Close-Approach Data ]

[ show orbit diagram ]
Orbital Elements at Epoch 2459000.5 (2020-May-31.0) TDB
Reference: JPL 13 (heliocentric ecliptic J2000)
 Element Value Uncertainty (1-sigma)   Units 
e .2645360892638107 5.8795e-08  
a 3.133104856982507 2.8159e-08 au
q 2.304285550862903 1.8921e-07 au
i 16.81946760992677 6.7071e-06 deg
node 248.8048324972274 2.3699e-05 deg
peri 160.125642590905 2.7342e-05 deg
M 212.646574223653 1.5081e-05 deg
tp 2459829.622227287257
(2022-Sep-07.12222729)
9.2926e-05 TDB
period 2025.633270830442
5.55
2.7308e-05
7.477e-08
d
yr
n .1777221993655407 2.3959e-09 deg/d
Q 3.96192416310211 3.5608e-08 au
  Orbit Determination Parameters
   # obs. used (total)      537  
   data-arc span      7205 days (19.73 yr)  
   first obs. used      1999-09-09  
   last obs. used      2019-06-01  
   planetary ephem.      DE431  
   SB-pert. ephem.      SB431-N16  
   condition code      0  
   norm. resid. RMS      .53506  
   source      ORB  
   producer      Otto Matic  
   solution date      2020-Feb-24 08:35:39  

Additional Information
 Earth MOID = 1.32235 au 
 Jupiter MOID = 1.45469 au 
 T_jup = 3.093 
[ show covariance matrix ]

Ephemeris | Orbit Diagram | Orbital Elements | Mission Design | Physical Parameters | Discovery Circumstances | Close-Approach Data ]

Physical Parameter Table
Parameter Symbol Value Units Sigma Reference Notes
absolute magnitude H 14.2   n/a MPO436734  

146215 (2000 VV36)          Discovered 2000-Nov-01 by LINEAR at Socorro
Reference: 20070106/Numbers.arcLast Updated: 2007-01-09

[ show close-approach data ]
Ephemeris | Orbit Diagram | Orbital Elements | Mission Design | Physical Parameters | Discovery Circumstances | Close-Approach Data ]
ABOUT SSD CREDITS/AWARDS PRIVACY/COPYRIGHT GLOSSARY LINKS
FirstGov 2020-Jul-05 01:20 UT
(server date/time)  
NASA Home Page
Site Manager:   Ryan S. Park
Webmaster  Alan B. Chamberlin